Regional Weather Roundup
Issued by NWS

Home | Current Version | Previous Version | Graphics & Text | Print | Product List | Glossary On
Versions: 1 2 3 4 5 6 7 8 9 10 11 12 13 14 15 16 17 18 19 20 21 22 23 24 25 26 27 28 29 30 31 32 33 34 35 36 37 38 39 40 41 42 43 44 45 46 47 48 49 50
000
ASUS43 KOAX 280810
RWRNE

WEATHER ROUNDUP FOR NEBRASKA
NATIONAL WEATHER SERVICE OMAHA NE
200 AM CST SAT FEB 28 2015

NOTES: SATELLITE DATA IS BEING USED TO AUGMENT CLOUD COVER ABOVE
       12000 FEET.
       "FAIR" INDICATES FEW OR NO CLOUDS BELOW 12,000 FEET WITH NO
       SIGNIFICANT WEATHER AND/OR OBSTRUCTIONS TO VISIBILITY.

  * THESE STATIONS DO NOT REPORT WEATHER SUCH AS RAIN...SNOW OR FOG.

NEZ001>004-019>022-054>056-280900-
NEBRASKA PANHANDLE

CITY           SKY/WX    TMP DP  RH WIND       PRES   REMARKS
SCOTTSBLUFF    CLEAR     10   5  80 SE12      30.00S WCI  -5
ALLIANCE       CLEAR      8   5  87 S13       30.01F WCI  -8
CHADRON        CLEAR     13   5  70 S9        30.03S WCI   1
KIMBALL        CLEAR      5   1  85 S9        29.92S WCI  -9
SIDNEY         MOCLDY     8   3  80 S13       30.00S WCI  -8
$$

NEZ057>060-069>072-079>082-280900-
SOUTHWEST NEBRASKA

CITY           SKY/WX    TMP DP  RH WIND       PRES   REMARKS
NORTH PLATTE   CLOUDY    15   5  64 S12       30.21S WCI   2
IMPERIAL         N/A     14   6  70 S13       30.14F WCI   0
LEXINGTON      CLOUDY    15   7  70 S9        30.28S WCI   4
MCCOOK         MOCLDY    15   5  64 S9        30.24F WCI   3
OGALLALA       CLOUDY    14  10  83 S10       30.13F WCI   1
$$

NEZ005>010-023>029-035>040-094-280900-
NORTH CENTRAL NEBRASKA

CITY           SKY/WX    TMP DP  RH WIND       PRES   REMARKS
VALENTINE      CLOUDY    18   6  59 S15       30.15F WCI   4
AINSWORTH      CLEAR     10   2  72 S10       30.19S WCI  -4
BROKEN BOW     MOCLDY    10   3  73 S12       30.26R WCI  -5
O`NEILL        CLEAR     11   2  68 S13       30.30S WCI  -4
ORD            CLEAR      9   1  70 S9        30.31S WCI  -4
THEDFORD       CLOUDY    18   8  65 S13       30.18R WCI   4
$$

NEZ041-046>049-061>064-073>077-083>087-280900-
SOUTH CENTRAL NEBRASKA

CITY           SKY/WX    TMP DP  RH WIND       PRES   REMARKS
GRAND ISLAND   CLEAR     10   2  69 S12       30.38S WCI  -5
AURORA         CLEAR     10   3  71 S7        30.39S WCI   0
HASTINGS       PTCLDY     8   2  76 S7        30.36F WCI  -3
HEBRON         CLEAR      9   2  73 SE3       30.44F
HOLDREGE       FLURRIES  12   6  77 S9        30.30S WCI  -1
KEARNEY *      CLOUDY     9   3  78 S12       30.33S WCI  -6
YORK           CLEAR     10   5  79 S7        30.41S WCI   0
$$

NEZ011>018-030>034-042>045-280900-
NORTHEAST NEBRASKA

CITY           SKY/WX    TMP DP  RH WIND       PRES   REMARKS
NORFOLK        CLEAR      4  -1  80 SE6       30.39S WCI  -7
ALBION         PTCLDY     5  -2  74 S5        30.37S WCI  -4
BLAIR          CLEAR      9   1  70 SE7       30.46S WCI  -2
COLUMBUS *     CLEAR      7  -6  56 S7        30.43S WCI  -5
FREMONT        CLEAR     11   2  67 SE7       30.47S WCI   0
TEKAMAH        CLEAR      4  -1  80 SE7       30.50S WCI  -8
WAYNE          CLEAR      5  -1  77 SE10      30.43S WCI -10
$$

NEZ050>053-065>068-078-088>093-280900-
SOUTHEAST NEBRASKA

CITY           SKY/WX    TMP DP  RH WIND       PRES   REMARKS
LINCOLN        CLEAR      7   1  76 S8        30.48S WCI  -6
OMAHA EPPLEY   CLEAR      8   0  69 SE6       30.52S WCI  -2
BEATRICE       PTCLDY    12   4  70 S5        30.47S WCI   4
FALLS CITY     CLOUDY    13   4  67 SE3       30.52S
NEBRASKA CITY  CLEAR      7  -3  64 S5        30.50S WCI  -2
PLATTSMOUTH    CLEAR      8  -1  65 SE6       30.49S WCI  -2
$$

NEZ044-045-051>053-067-280900-
OMAHA AREA

CITY           SKY/WX    TMP DP  RH WIND       PRES   REMARKS
OMAHA EPPLEY   CLEAR      8   0  69 SE6       30.52S WCI  -2
BLAIR          CLEAR      9   1  70 SE7       30.46S WCI  -2
FREMONT        CLEAR     11   2  67 SE7       30.47S WCI   0
MILLARD        CLEAR     10   2  69 SE3       30.50S
OFFUTT AFB     CLEAR      9  -1  66 SE6       30.50S WCI  -1
PLATTSMOUTH    CLEAR      8  -1  65 SE6       30.49S WCI  -2
WAHOO          FAIR       6  -2  69 SE6       30.47S WCI  -4
$$


USA.gov is the U.S. government's official web portal to all federal, state and local government web resources and services.